Wind_Speed
50 50 51 51 51 51 51 52 53 53 53 52 52 51 51 50 51 50 50 49 49 49 49 49 50 49 49 49 49 49 49 50 49 49 49 50 50 50
50 51 52 53 53 53 52 52 53 54 55 54 53 53 53 52 52 51 51 50 50 50 51 51 50 49 49 50 50 50 50 50 50 50 50 50 51 51
51 51 52 52 52 53 52 52 52 52 53 54 55 55 54 54 53 52 51 51 51 51 50 50 50 50 51 51 51 51 52 52 51 52 52 52 52 52
50 50 49 50 51 51 51 52 52 52 52 52 53 54 54 54 53 52 52 52 51 51 50 51 51 52 52 52 53 53 52 52 52 53 53 54 53 53
51 50 49 49 50 51 51 52 53 53 53 53 52 54 54 53 53 53 53 52 52 52 52 52 53 53 53 54 54 54 54 54 54 53 54 54 54 54
51 51 50 50 50 50 51 52 52 52 53 53 52 52 52 53 52 53 53 53 52 52 52 52 53 53 54 54 54 55 55 55 55 54 54 54 54 53
52 52 52 51 50 51 51 51 51 52 52 52 51 52 52 52 53 53 53 52 52 52 52 52 53 53 53 53 54 54 55 55 55 54 53 53 53 54
50 51 52 52 51 52 51 51 51 51 51 51 51 52 52 53 54 53 53 52 52 52 52 52 52 52 52 52 53 53 53 54 54 53 53 52 52 53
49 50 50 51 52 52 51 51 51 51 51 51 51 51 52 53 53 53 52 52 51 51 51 51 52 52 52 51 52 52 52 52 52 52 52 52 52 52
48 49 49 50 52 52 52 53 52 52 51 51 50 51 51 50 51 51 51 51 51 51 52 52 51 51 50 50 50 51 51 52 51 51 51 51 52 52
48 49 49 49 50 52 53 53 52 52 52 52 52 51 51 50 50 50 50 51 51 51 52 52 51 52 51 51 51 51 51 51 51 50 50 50 51 51
50 50 50 50 50 51 51 52 52 52 52 52 52 52 52 52 52 51 51 51 51 51 51 51 51 52 51 50 50 51 51 50 50 50 50 50 50 49
50 50 50 51 51 51 51 52 52 52 52 52 52 52 52 53 53 53 53 53 52 52 53 53 53 53 53 51 50 51 51 51 51 50 50 50 50 49
49 49 50 50 50 51 51 52 52 52 52 52 52 51 52 53 54 54 53 53 53 53 54 54 54 53 53 53 52 52 52 52 51 50 50 50 50 50
48 48 49 49 50 50 50 51 51 52 52 53 53 52 53 53 54 55 55 54 54 53 54 54 54 54 54 54 53 52 52 52 51 51 51 51 51 50
47 47 47 48 48 48 48 49 50 51 52 52 52 53 54 54 55 55 56 56 55 54 54 55 55 55 55 54 54 53 53 53 53 53 52 52 52 52
45 45 46 46 47 47 47 48 49 50 50 50 51 52 53 54 55 56 56 57 56 55 54 55 55 56 56 55 55 54 54 54 53 53 53 53 53 53
44 44 45 45 46 46 47 47 48 49 49 50 50 51 52 53 54 54 55 56 56 55 55 54 55 55 55 55 55 54 54 54 53 52 53 52 51 52
43 43 43 44 44 45 46 47 47 48 49 50 50 51 52 52 52 52 53 53 54 54 53 53 53 53 54 53 52 53 53 52 52 51 51 51 51 51
42 42 43 43 43 44 44 45 46 47 48 49 49 49 49 50 50 50 50 51 51 51 51 51 51 51 51 51 50 50 50 50 50 49 49 49 49 49
42 42 43 43 42 43 43 43 44 44 45 46 46 47 47 47 47 47 48 48 48 48 48 48 48 49 48 48 47 47 47 48 48 48 48 48 47 47
41 41 41 41 41 41 41 42 42 43 43 43 44 44 45 45 45 45 45 45 45 45 45 45 45 46 46 45 45 44 44 44 45 45 45 45 45 44
40 40 40 40 40 40 40 40 40 40 40 40 40 40 40 41 42 42 42 43 43 43 43 43 43 43 43 43 43 42 42 42 42 42 42 42 42 42
Wind_Direction
259 258 257 258 259 259 259 258 257 256 256 258 259 259 260 261 262 263 265 266 266 266 266 266 267 267 266 267 266 266 267 269 269 269 268 267 266 265
259 258 258 258 258 259 259 258 258 258 258 257 259 259 260 262 262 263 265 266 266 265 266 267 267 266 267 267 267 267 269 269 269 269 269 269 267 265
259 259 258 258 258 258 258 258 259 259 259 259 259 260 261 262 263 263 264 265 266 266 266 266 265 266 267 268 268 268 269 269 269 269 269 269 268 267
259 259 258 257 256 257 257 257 258 259 260 259 259 260 260 262 262 262 263 265 266 266 266 266 266 267 267 268 268 268 269 269 269 269 269 268 267 266
260 259 258 258 257 257 258 258 259 260 261 261 260 260 261 261 262 262 263 265 265 265 266 266 267 267 268 268 268 268 269 269 269 269 269 267 266 265
260 259 259 259 259 259 258 258 259 260 261 261 261 261 261 261 262 263 264 265 264 265 266 266 267 268 268 268 268 268 268 268 269 269 268 267 266 265
261 260 260 260 260 260 259 258 259 260 260 261 261 260 261 261 262 264 264 263 264 265 266 267 267 268 268 268 268 268 268 268 268 269 268 268 266 265
262 261 261 260 260 260 259 259 260 260 260 260 260 260 260 261 262 263 263 263 263 264 265 266 268 268 269 269 269 268 268 268 268 268 268 268 267 266
263 262 262 261 261 261 260 260 260 260 261 261 261 260 260 261 261 261 261 262 263 264 264 266 267 268 269 269 269 269 269 269 269 269 268 267 266 266
264 263 263 262 261 260 260 260 260 260 260 260 261 260 260 260 260 260 261 262 263 264 265 266 267 268 268 269 269 269 269 269 269 269 268 267 266 266
265 264 264 263 262 261 261 261 260 260 260 261 261 261 260 259 260 261 261 262 263 264 265 266 266 267 267 269 269 269 269 269 269 268 267 267 267 266
266 265 264 264 262 262 261 261 261 261 261 261 261 261 260 259 260 261 263 264 264 264 265 267 267 267 267 267 268 269 269 269 268 267 267 267 267 266
266 265 264 264 263 263 262 262 261 261 261 261 261 261 260 261 262 263 264 265 265 265 266 267 268 267 267 267 267 268 269 269 268 267 268 268 268 268
266 265 264 264 264 263 262 262 262 261 261 261 261 261 261 262 263 264 265 266 266 267 268 268 268 267 267 267 266 267 268 268 267 267 267 268 268 268
267 266 265 264 263 263 262 262 262 262 262 262 261 261 261 262 263 264 265 266 267 268 268 268 268 267 267 267 267 266 267 267 267 266 266 266 267 266
267 266 266 265 265 264 263 263 263 263 263 263 262 262 262 262 263 264 264 265 266 267 268 268 268 267 267 267 267 266 266 266 266 266 266 266 265 265
267 266 266 266 265 265 264 264 264 264 263 263 263 263 263 263 264 264 265 265 265 266 267 267 267 267 267 267 267 267 267 266 265 265 265 265 265 265
266 266 266 267 266 266 265 265 265 264 264 264 264 264 264 264 265 265 265 266 266 266 266 266 266 266 267 267 267 267 267 266 265 264 264 264 265 265
267 267 267 267 267 267 266 266 265 265 265 265 266 266 266 266 266 265 266 266 266 265 265 265 265 266 266 266 266 267 267 266 265 264 265 265 265 266
267 268 268 268 267 267 267 267 266 267 267 267 267 267 267 267 267 266 266 266 265 265 265 265 266 266 267 267 266 266 266 266 265 265 265 265 266 266
268 268 268 268 268 268 268 268 269 269 269 269 268 267 267 267 267 266 266 266 265 265 265 265 266 267 266 266 266 265 265 265 265 265 265 266 266 266
268 268 267 267 268 268 268 269 271 271 270 270 269 268 267 267 267 266 266 266 266 266 265 265 265 265 265 266 265 265 265 264 264 265 266 266 267 266
269 268 268 268 268 269 270 271 272 272 271 270 269 269 268 267 267 267 267 267 267 266 266 265 264 264 265 265 265 265 265 264 264 264 265 267 268 267
Height
5650 5652 5653 5655 5656 5658 5659 5661 5664 5666 5668 5669 5669 5670 5671 5671 5672 5672 5672 5672 5672 5672 5673 5673 5673 5673 5674 5674 5674 5674 5674 5674 5673 5673 5672 5673 5674 5675
5637 5638 5640 5641 5642 5643 5645 5647 5649 5651 5653 5655 5656 5656 5657 5658 5658 5658 5658 5658 5658 5659 5659 5659 5659 5660 5660 5660 5660 5660 5660 5659 5658 5658 5658 5658 5659 5660
5623 5624 5626 5627 5628 5629 5631 5633 5634 5636 5638 5640 5641 5642 5643 5644 5644 5644 5644 5645 5645 5645 5645 5645 5645 5646 5646 5646 5646 5645 5645 5644 5644 5644 5643 5643 5644 5645
5609 5610 5611 5613 5614 5615 5617 5618 5619 5621 5623 5625 5626 5627 5628 5629 5630 5630 5630 5631 5631 5631 5631 5631 5631 5631 5631 5631 5631 5631 5630 5629 5629 5628 5628 5628 5628 5629
5596 5597 5598 5599 5600 5601 5603 5604 5605 5606 5608 5610 5611 5612 5613 5614 5615 5615 5616 5616 5616 5616 5617 5617 5616 5616 5616 5616 5616 5615 5615 5615 5614 5613 5612 5612 5612 5614
5582 5583 5584 5585 5586 5587 5589 5590 5591 5592 5593 5595 5596 5597 5598 5599 5600 5601 5601 5601 5602 5602 5602 5602 5602 5601 5601 5601 5601 5600 5599 5599 5598 5598 5597 5597 5597 5598
5568 5569 5570 5571 5572 5573 5575 5576 5577 5578 5579 5580 5581 5583 5583 5584 5585 5586 5586 5587 5587 5587 5587 5587 5587 5587 5586 5585 5585 5584 5583 5583 5583 5582 5581 5582 5582 5583
5554 5555 5556 5557 5558 5559 5560 5561 5562 5564 5565 5566 5567 5568 5568 5569 5570 5570 5571 5573 5574 5573 5572 5572 5571 5571 5571 5570 5569 5569 5568 5567 5567 5567 5566 5567 5567 5568
5539 5540 5541 5542 5543 5544 5545 5546 5547 5549 5550 5552 5552 5552 5553 5554 5555 5556 5556 5557 5558 5557 5557 5558 5557 5556 5556 5555 5554 5554 5553 5553 5552 5552 5552 5552 5553 5554
5524 5525 5526 5527 5527 5528 5530 5531 5532 5534 5535 5536 5538 5538 5538 5538 5539 5540 5541 5542 5543 5542 5541 5543 5542 5542 5541 5540 5540 5539 5539 5538 5538 5537 5537 5538 5538 5539
5509 5509 5510 5511 5512 5513 5515 5516 5518 5518 5518 5520 5521 5522 5523 5523 5524 5525 5525 5526 5527 5527 5526 5527 5527 5527 5527 5526 5525 5524 5524 5524 5523 5523 5523 5523 5524 5525
5494 5494 5495 5496 5497 5497 5499 5500 5501 5502 5503 5504 5505 5507 5507 5508 5508 5509 5510 5510 5511 5512 5511 5511 5511 5510 5512 5512 5511 5509 5509 5509 5509 5509 5509 5509 5509 5510
5479 5479 5479 5480 5481 5482 5483 5484 5485 5486 5487 5489 5490 5491 5491 5492 5493 5493 5494 5494 5495 5496 5495 5495 5495 5494 5495 5496 5497 5495 5494 5494 5494 5494 5494 5495 5495 5496
5463 5463 5464 5464 5465 5466 5467 5468 5469 5470 5471 5473 5474 5475 5476 5476 5477 5477 5478 5478 5479 5479 5479 5478 5479 5478 5479 5479 5481 5481 5480 5479 5479 5480 5480 5480 5480 5481
5447 5447 5448 5448 5449 5450 5451 5452 5453 5454 5455 5456 5458 5459 5460 5460 5461 5462 5462 5462 5462 5462 5462 5461 5462 5462 5462 5463 5464 5465 5465 5465 5464 5465 5465 5465 5466 5467
5432 5432 5433 5433 5434 5435 5436 5436 5437 5438 5439 5440 5441 5442 5443 5444 5444 5445 5446 5446 5446 5447 5446 5445 5445 5445 5446 5447 5448 5449 5449 5449 5449 5449 5450 5450 5451 5452
5418 5418 5418 5419 5419 5420 5421 5421 5422 5422 5423 5424 5425 5425 5426 5427 5427 5428 5428 5428 5429 5430 5430 5429 5428 5428 5429 5430 5431 5432 5432 5433 5433 5433 5434 5435 5436 5437
5403 5404 5404 5404 5405 5405 5406 5406 5406 5406 5407 5407 5408 5409 5409 5409 5410 5410 5410 5411 5412 5413 5413 5413 5412 5412 5412 5414 5415 5415 5415 5416 5417 5417 5418 5420 5421 5422
5390 5390 5390 5390 5390 5390 5391 5391 5391 5391 5391 5392 5392 5392 5392 5393 5393 5393 5393 5394 5394 5395 5396 5396 5395 5395 5396 5398 5399 5398 5399 5399 5400 5401 5402 5404 5406 5407
5377 5377 5377 5377 5376 5376 5376 5376 5376 5376 5376 5376 5376 5376 5376 5377 5377 5377 5377 5377 5378 5379 5380 5380 5380 5380 5380 5381 5383 5383 5382 5383 5384 5386 5387 5389 5390 5391
5363 5363 5363 5363 5362 5362 5362 5362 5362 5361 5361 5361 5361 5361 5361 5361 5361 5361 5361 5362 5362 5363 5364 5365 5364 5364 5364 5365 5367 5368 5369 5368 5369 5370 5372 5373 5375 5376
5350 5349 5349 5349 5349 5349 5349 5348 5348 5347 5347 5347 5346 5346 5346 5346 5347 5347 5347 5347 5348 5348 5349 5350 5350 5350 5350 5351 5352 5354 5355 5355 5355 5356 5357 5358 5359 5362
5336 5336 5336 5336 5336 5335 5335 5335 5334 5334 5333 5333 5333 5332 5332 5333 5333 5333 5333 5333 5334 5334 5335 5336 5336 5337 5337 5338 5339 5340 5341 5342 5343 5344 5345 5345 5346 5348